| time (UTC) | temp F | wind direction | speed MPH | gust MPH | rain 1hr in | rain 24hr in | rain mn in | humidity % | barometer mb |
| 20260505022220 | 46 | 345 | 5.0 | 10.0 | 0.00 | 0.00 | 0.00 | 55 | 1011.8 |
| 20260505021720 | 0 | 354 | 6.0 | 10.0 | 0.00 | 0.00 | 0.00 | 1011.7 | |
| 20260505020719 | 47 | 0 | 7.0 | 11.0 | 0.00 | 0.00 | 0.00 | 53 | 1011.5 |
| 20260505015719 | 48 | 347 | 7.0 | 12.0 | 0.00 | 0.00 | 0.00 | 52 | 1011.5 |
| 20260505014720 | 49 | 336 | 9.0 | 15.0 | 0.00 | 0.00 | 0.00 | 50 | 1011.5 |
| 20260505014220 | 49 | 354 | 9.0 | 17.0 | 0.00 | 0.00 | 0.00 | 49 | 1011.5 |
| 20260505013718 | 50 | 355 | 10.0 | 17.0 | 0.00 | 0.00 | 0.00 | 49 | 1011.4 |
| 20260505013219 | 50 | 345 | 10.0 | 18.0 | 0.00 | 0.00 | 0.00 | 48 | 1011.3 |
| 20260505012718 | 51 | 348 | 12.0 | 18.0 | 0.00 | 0.00 | 0.00 | 48 | 1011.3 |
| 20260505012218 | 51 | 353 | 11.0 | 18.0 | 0.00 | 0.00 | 0.00 | 48 | 1011.2 |
| 20260505011218 | 52 | 347 | 10.0 | 18.0 | 0.00 | 0.00 | 0.00 | 46 | 1011.1 |
| 20260505010718 | 52 | 0 | 12.0 | 20.0 | 0.00 | 0.00 | 0.00 | 45 | 1011.0 |
| 20260505010217 | 53 | 347 | 13.0 | 22.0 | 0.00 | 0.00 | 0.00 | 45 | 1011.0 |
| 20260505005718 | 53 | 1 | 16.0 | 22.0 | 0.00 | 0.00 | 0.00 | 45 | 1011.1 |
| 20260505004718 | 54 | 358 | 17.0 | 21.0 | 0.00 | 0.00 | 0.00 | 44 | 1010.8 |
| 20260505003718 | 53 | 333 | 14.0 | 21.0 | 0.00 | 0.00 | 0.00 | 45 | 1010.7 |
| 20260505003218 | 53 | 348 | 11.0 | 19.0 | 0.00 | 0.00 | 0.00 | 45 | 1010.8 |
| 20260505002718 | 53 | 320 | 11.0 | 19.0 | 0.00 | 0.00 | 0.00 | 45 | 1010.6 |
| 20260505002216 | 54 | 351 | 11.0 | 20.0 | 0.00 | 0.00 | 0.00 | 44 | 1010.7 |
| 20260505001216 | 54 | 358 | 12.0 | 19.0 | 0.00 | 0.00 | 0.00 | 43 | 1010.7 |
| 20260505000716 | 55 | 358 | 14.0 | 15.0 | 0.00 | 0.00 | 0.00 | 45 | 1010.8 |
| 20260505000218 | 55 | 0.0 | 16.0 | 0.00 | 0.00 | 0.00 | 44 | 1010.6 | |
| 20260504235717 | 54 | 321 | 16.0 | 17.0 | 0.00 | 0.00 | 0.00 | 44 | 1010.4 |
| 20260504234717 | 55 | 344 | 13.0 | 19.0 | 0.00 | 0.00 | 0.00 | 43 | 1010.5 |
| 20260504234215 | 56 | 324 | 12.0 | 23.0 | 0.00 | 0.00 | 0.00 | 43 | 1010.5 |
| 20260504233716 | 56 | 341 | 17.0 | 23.0 | 0.00 | 0.00 | 0.00 | 43 | 1010.6 |
| 20260504233217 | 56 | 357 | 13.0 | 22.0 | 0.00 | 0.00 | 0.00 | 42 | 1010.6 |
| 20260504232715 | 0 | 6 | 15.0 | 23.0 | 0.00 | 0.00 | 0.00 | 1010.4 | |
| 20260504232216 | 56 | 13 | 15.0 | 23.0 | 0.00 | 0.00 | 0.00 | 42 | 1010.3 |
| 20260504231216 | 56 | 348 | 15.0 | 21.0 | 0.00 | 0.00 | 0.00 | 42 | 1010.4 |
| 20260504225715 | 57 | 358 | 13.0 | 22.0 | 0.00 | 0.00 | 0.00 | 41 | 1009.9 |
| 20260504224714 | 57 | 354 | 17.0 | 26.0 | 0.00 | 0.00 | 0.00 | 42 | 1009.9 |
| 20260504224216 | 56 | 343 | 16.0 | 21.0 | 0.00 | 0.00 | 0.00 | 42 | 1010.0 |
| 20260504222715 | 56 | 347 | 13.0 | 18.0 | 0.00 | 0.00 | 0.00 | 41 | 1009.8 |
| 20260504222215 | 56 | 347 | 12.0 | 18.0 | 0.00 | 0.00 | 0.00 | 43 | 1009.8 |
| 20260504221712 | 56 | 321 | 13.0 | 21.0 | 0.00 | 0.00 | 0.00 | 42 | 1009.8 |
| 20260504221212 | 56 | 350 | 10.0 | 21.0 | 0.00 | 0.00 | 0.00 | 42 | 1009.8 |
| 20260504220713 | 56 | 312 | 15.0 | 24.0 | 0.00 | 0.00 | 0.00 | 42 | 1009.7 |
| 20260504220213 | 56 | 324 | 18.0 | 24.0 | 0.00 | 0.00 | 0.00 | 42 | 1009.9 |
| 20260504215714 | 56 | 302 | 13.0 | 23.0 | 0.00 | 0.00 | 0.00 | 43 | 1009.6 |
| 20260504215214 | 56 | 314 | 15.0 | 23.0 | 0.00 | 0.00 | 0.00 | 42 | 1009.9 |
| 20260504214712 | 56 | 316 | 16.0 | 22.0 | 0.00 | 0.00 | 0.00 | 43 | 1009.9 |
| 20260504214213 | 56 | 306 | 18.0 | 28.0 | 0.00 | 0.00 | 0.00 | 43 | 1009.9 |
| 20260504213713 | 56 | 306 | 15.0 | 28.0 | 0.00 | 0.00 | 0.00 | 44 | 1009.8 |
| 20260504213211 | 56 | 313 | 21.0 | 24.0 | 0.00 | 0.00 | 0.00 | 44 | 1009.7 |
| 20260504212712 | 55 | 331 | 16.0 | 23.0 | 0.00 | 0.00 | 0.00 | 43 | 1009.9 |
| 20260504212214 | 56 | 336 | 15.0 | 29.0 | 0.00 | 0.00 | 0.00 | 42 | 1010.1 |
| 20260504210713 | 56 | 355 | 13.0 | 27.0 | 0.00 | 0.00 | 0.00 | 41 | 1010.4 |
| 20260504205712 | 56 | 343 | 18.0 | 26.0 | 0.00 | 0.00 | 0.00 | 43 | 1010.4 |
| 20260504205212 | 55 | 337 | 17.0 | 32.0 | 0.00 | 0.00 | 0.00 | 43 | 1010.5 |
| 20260504204711 | 55 | 319 | 20.0 | 32.0 | 0.00 | 0.00 | 0.00 | 42 | 1010.6 |
| 20260504204212 | 55 | 306 | 19.0 | 29.0 | 0.00 | 0.00 | 0.00 | 44 | 1010.6 |
| 20260504203712 | 54 | 338 | 13.0 | 27.0 | 0.00 | 0.00 | 0.00 | 45 | 1010.7 |
| 20260504202211 | 54 | 0 | 13.0 | 27.0 | 0.00 | 0.00 | 0.00 | 44 | 1011.0 |
| 20260504201711 | 54 | 327 | 16.0 | 26.0 | 0.00 | 0.00 | 0.00 | 44 | 1010.7 |
| 20260504201211 | 54 | 316 | 19.0 | 27.0 | 0.00 | 0.00 | 0.00 | 44 | 1010.8 |
| 20260504200711 | 54 | 320 | 17.0 | 27.0 | 0.00 | 0.00 | 0.00 | 46 | 1011.0 |
| 20260504200211 | 55 | 321 | 20.0 | 29.0 | 0.00 | 0.00 | 0.00 | 44 | 1010.6 |
| 20260504195711 | 55 | 321 | 19.0 | 31.0 | 0.00 | 0.00 | 0.00 | 45 | 1010.9 |
| 20260504195210 | 55 | 326 | 23.0 | 31.0 | 0.00 | 0.00 | 0.00 | 45 | 1010.8 |
| 20260504194711 | 55 | 326 | 17.0 | 26.0 | 0.00 | 0.00 | 0.00 | 47 | 1010.6 |
| 20260504194211 | 55 | 316 | 16.0 | 26.0 | 0.00 | 0.00 | 0.00 | 48 | 1010.5 |
| 20260504193711 | 54 | 0 | 18.0 | 26.0 | 0.00 | 0.00 | 0.00 | 47 | 1010.9 |
| 20260504193211 | 54 | 350 | 17.0 | 28.0 | 0.00 | 0.00 | 0.00 | 48 | 1011.0 |
| 20260504192709 | 54 | 340 | 19.0 | 28.0 | 0.00 | 0.00 | 0.00 | 48 | 1011.0 |
| 20260504192209 | 54 | 331 | 21.0 | 27.0 | 0.00 | 0.00 | 0.00 | 48 | 1010.4 |
| 20260504191710 | 54 | 326 | 19.0 | 27.0 | 0.00 | 0.00 | 0.00 | 48 | 1010.6 |
| 20260504191210 | 54 | 351 | 19.0 | 30.0 | 0.00 | 0.00 | 0.00 | 49 | 1010.5 |
| 20260504190208 | 53 | 324 | 16.0 | 24.0 | 0.00 | 0.00 | 0.00 | 50 | 1010.6 |
| 20260504185709 | 53 | 314 | 15.0 | 26.0 | 0.00 | 0.00 | 0.00 | 49 | 1010.5 |
| 20260504184209 | 54 | 309 | 19.0 | 27.0 | 0.00 | 0.00 | 0.00 | 50 | 1010.5 |
| 20260504183710 | 53 | 336 | 17.0 | 22.0 | 0.00 | 0.00 | 0.00 | 49 | 1010.6 |
| 20260504182709 | 54 | 326 | 16.0 | 23.0 | 0.00 | 0.00 | 0.00 | 49 | 1010.6 |
| 20260504182209 | 53 | 336 | 11.0 | 22.0 | 0.00 | 0.00 | 0.00 | 52 | 1010.7 |
| 20260504181708 | 52 | 355 | 14.0 | 26.0 | 0.00 | 0.00 | 0.00 | 51 | 1010.6 |
| 20260504181207 | 52 | 343 | 17.0 | 27.0 | 0.00 | 0.00 | 0.00 | 50 | 1010.6 |
| 20260504180708 | 53 | 357 | 19.0 | 28.0 | 0.00 | 0.00 | 0.00 | 50 | 1010.6 |
| 20260504175709 | 53 | 334 | 16.0 | 28.0 | 0.00 | 0.00 | 0.00 | 50 | 1010.5 |
| 20260504175207 | 53 | 348 | 19.0 | 28.0 | 0.00 | 0.00 | 0.00 | 48 | 1010.5 |
| 20260504174707 | 53 | 336 | 15.0 | 22.0 | 0.00 | 0.00 | 0.00 | 50 | 1010.5 |
| 20260504174208 | 53 | 0.0 | 21.0 | 0.00 | 0.00 | 0.00 | 50 | 1010.3 | |
| 20260504173707 | 53 | 327 | 21.0 | 21.0 | 0.00 | 0.00 | 0.00 | 49 | 1010.3 |
| 20260504173207 | 53 | 0 | 17.0 | 24.0 | 0.00 | 0.00 | 0.00 | 48 | 1010.1 |
| 20260504172707 | 54 | 323 | 15.0 | 24.0 | 0.00 | 0.00 | 0.00 | 49 | 1009.6 |
| 20260504172206 | 54 | 350 | 11.0 | 31.0 | 0.00 | 0.00 | 0.00 | 49 | 1010.1 |
| 20260504171706 | 54 | 326 | 19.0 | 31.0 | 0.00 | 0.00 | 0.00 | 48 | 1010.1 |
| 20260504171206 | 54 | 0 | 19.0 | 28.0 | 0.00 | 0.00 | 0.00 | 48 | 1010.3 |
| 20260504170708 | 54 | 338 | 15.0 | 24.0 | 0.00 | 0.00 | 0.00 | 48 | 1010.1 |
| 20260504170206 | 54 | 355 | 20.0 | 27.0 | 0.00 | 0.00 | 0.00 | 48 | 1010.1 |
| 20260504160206 | 54 | 350 | 16.0 | 28.0 | 0.00 | 0.00 | 0.00 | 45 | 1008.9 |
| 20260504150704 | 55 | 327 | 15.0 | 27.0 | 0.00 | 0.00 | 0.00 | 47 | 1008.5 |
| 20260504150204 | 55 | 317 | 17.0 | 23.0 | 0.00 | 0.00 | 0.00 | 49 | 1008.5 |
| 20260504141203 | 52 | 354 | 10.0 | 17.0 | 0.00 | 0.00 | 0.00 | 67 | 1008.0 |
| 20260504140704 | 51 | 313 | 12.0 | 16.0 | 0.00 | 0.00 | 0.00 | 67 | 1008.0 |
| 20260504140201 | 51 | 331 | 10.0 | 17.0 | 0.00 | 0.00 | 0.00 | 67 | 1008.0 |
| 20260504130702 | 48 | 345 | 4.0 | 6.0 | 0.00 | 0.00 | 0.00 | 79 | 1007.2 |
| 20260504130200 | 47 | 317 | 5.0 | 6.0 | 0.00 | 0.00 | 0.00 | 79 | 1007.1 |
| 20260504120200 | 0 | 348 | 5.0 | 7.0 | 0.00 | 0.00 | 0.00 | 1006.1 | |
| 20260504100157 | 46 | 321 | 6.0 | 10.0 | 0.00 | 0.00 | 0.00 | 82 | 1004.2 |
| 20260504081654 | 53 | 245 | 14.0 | 18.0 | 0.00 | 0.00 | 0.00 | 74 | 1002.6 |
| 20260504081154 | 53 | 241 | 14.0 | 19.0 | 0.00 | 0.00 | 0.00 | 74 | 1002.3 |
| 20260504080653 | 52 | 240 | 16.0 | 19.0 | 0.00 | 0.00 | 0.00 | 74 | 1002.7 |
| 20260504080154 | 52 | 241 | 14.0 | 17.0 | 0.00 | 0.00 | 0.00 | 74 | 1002.7 |
| 20260504070152 | 50 | 264 | 8.0 | 11.0 | 0.00 | 0.00 | 0.00 | 75 | 1004.1 |
| 20260504060150 | 54 | 240 | 12.0 | 15.0 | 0.00 | 0.00 | 0.00 | 65 | 1004.6 |
| 20260504050649 | 56 | 217 | 16.0 | 19.0 | 0.00 | 0.00 | 0.00 | 59 | 1004.8 |
| 20260504050148 | 55 | 216 | 13.0 | 17.0 | 0.00 | 0.00 | 0.00 | 59 | 1005.0 |
| 20260504045150 | 54 | 210 | 12.0 | 14.0 | 0.00 | 0.00 | 0.00 | 61 | 1005.2 |
| 20260504044649 | 53 | 203 | 12.0 | 14.0 | 0.00 | 0.00 | 0.00 | 62 | 1005.2 |
| 20260504044148 | 52 | 216 | 11.0 | 13.0 | 0.00 | 0.00 | 0.00 | 63 | 1005.4 |
| 20260504043649 | 53 | 212 | 10.0 | 14.0 | 0.00 | 0.00 | 0.00 | 62 | 1005.4 |
| 20260504043147 | 53 | 213 | 11.0 | 14.0 | 0.00 | 0.00 | 0.00 | 62 | 1005.4 |
| 20260504042147 | 53 | 209 | 11.0 | 16.0 | 0.00 | 0.00 | 0.00 | 60 | 1005.6 |
| 20260504041647 | 54 | 214 | 13.0 | 17.0 | 0.00 | 0.00 | 0.00 | 60 | 1005.5 |
| 20260504041148 | 53 | 209 | 14.0 | 17.0 | 0.00 | 0.00 | 0.00 | 60 | 1005.4 |
| 20260504040648 | 53 | 207 | 12.0 | 13.0 | 0.00 | 0.00 | 0.00 | 60 | 1005.6 |
| 20260504040147 | 53 | 209 | 9.0 | 13.0 | 0.00 | 0.00 | 0.00 | 59 | 1005.6 |
| 20260504035648 | 53 | 209 | 11.0 | 13.0 | 0.00 | 0.00 | 0.00 | 59 | 1005.7 |
| 20260504035146 | 53 | 202 | 10.0 | 12.0 | 0.00 | 0.00 | 0.00 | 60 | 1005.6 |
| 20260504034147 | 53 | 203 | 9.0 | 13.0 | 0.00 | 0.00 | 0.00 | 60 | 1005.8 |
| 20260504033646 | 54 | 202 | 9.0 | 13.0 | 0.00 | 0.00 | 0.00 | 59 | 1005.8 |
| 20260504033147 | 54 | 202 | 11.0 | 13.0 | 0.00 | 0.00 | 0.00 | 59 | 1005.9 |
| 20260504032645 | 53 | 209 | 10.0 | 13.0 | 0.00 | 0.00 | 0.00 | 59 | 1005.9 |
| 20260504032147 | 53 | 196 | 7.0 | 9.0 | 0.00 | 0.00 | 0.00 | 60 | 1005.9 |
| 20260504031647 | 53 | 0.0 | 10.0 | 0.00 | 0.00 | 0.00 | 62 | 1005.9 | |
| 20260504031145 | 52 | 197 | 8.0 | 10.0 | 0.00 | 0.00 | 0.00 | 62 | 1006.1 |
| 20260504030646 | 52 | 197 | 6.0 | 9.0 | 0.00 | 0.00 | 0.00 | 63 | 1006.2 |
| 20260504030145 | 52 | 197 | 6.0 | 9.0 | 0.00 | 0.00 | 0.00 | 63 | 1006.2 |
| 20260504025646 | 52 | 196 | 5.0 | 10.0 | 0.00 | 0.00 | 0.00 | 64 | 1006.4 |
| 20260504025145 | 51 | 195 | 6.0 | 10.0 | 0.00 | 0.00 | 0.00 | 64 | 1006.4 |
| 20260504024646 | 51 | 192 | 6.0 | 9.0 | 0.00 | 0.00 | 0.00 | 65 | 1006.5 |
| 20260504024146 | 51 | 193 | 6.0 | 9.0 | 0.00 | 0.00 | 0.00 | 64 | 1006.6 |
| 20260504023646 | 51 | 195 | 5.0 | 7.0 | 0.00 | 0.00 | 0.00 | 64 | 1006.7 |
| 20260504023144 | 51 | 190 | 6.0 | 9.0 | 0.00 | 0.00 | 0.00 | 63 | 1006.8 |
| 20260504022644 | 51 | 199 | 7.0 | 10.0 | 0.00 | 0.00 | 0.00 | 62 | 1006.8 |